| time (UTC) | temp C | wind direction | speed KPH | gust KPH | rain 1hr cm | rain 24hr cm | rain mn cm | humidity % | barometer mb |
| 20260506050303 | 11 | 161 | 0.0 | 3.2 | 0.03 | 0.30 | 0.13 | 93 | 1018.0 |
| 20260506040803 | 11 | 64 | 0.0 | 1.6 | 0.00 | 0.28 | 0.10 | 93 | 1018.0 |
| 20260506040303 | 11 | 62 | 1.6 | 4.8 | 0.00 | 0.28 | 0.10 | 93 | 1018.0 |
| 20260506030803 | 11 | 63 | 1.6 | 4.8 | 0.00 | 0.28 | 0.10 | 94 | 1018.0 |
| 20260506030303 | 11 | 73 | 1.6 | 4.8 | 0.03 | 0.28 | 0.10 | 94 | 1018.0 |
| 20260506020803 | 11 | 73 | 1.6 | 4.8 | 0.05 | 0.28 | 0.10 | 94 | 1018.1 |
| 20260506020303 | 11 | 82 | 1.6 | 4.8 | 0.03 | 0.25 | 0.08 | 94 | 1018.1 |
| 20260506010804 | 11 | 170 | 0.0 | 3.2 | 0.03 | 0.25 | 0.08 | 94 | 1018.1 |
| 20260506010304 | 11 | 195 | 0.0 | 3.2 | 0.03 | 0.25 | 0.08 | 94 | 1018.1 |
| 20260506000803 | 12 | 252 | 0.0 | 3.2 | 0.03 | 0.23 | 0.05 | 93 | 1018.1 |
| 20260506000303 | 12 | 268 | 1.6 | 4.8 | 0.03 | 0.23 | 0.05 | 93 | 1018.1 |
| 20260505230803 | 12 | 69 | 0.0 | 3.2 | 0.00 | 0.20 | 0.03 | 93 | 1018.1 |
| 20260505230304 | 12 | 69 | 0.0 | 3.2 | 0.03 | 0.20 | 0.03 | 93 | 1018.1 |
| 20260505220804 | 12 | 98 | 0.0 | 1.6 | 0.05 | 0.20 | 0.03 | 92 | 1018.1 |
| 20260505220304 | 12 | 98 | 0.0 | 4.8 | 0.03 | 0.18 | 0.00 | 92 | 1018.1 |
| 20260505210303 | 12 | 153 | 1.6 | 4.8 | 0.00 | 0.15 | 0.15 | 90 | 1018.1 |
| 20260505200804 | 13 | 276 | 0.0 | 1.6 | 0.00 | 0.15 | 0.15 | 87 | 1018.1 |
| 20260505200304 | 12 | 281 | 0.0 | 1.6 | 0.00 | 0.15 | 0.15 | 87 | 1018.1 |
| 20260505190803 | 13 | 275 | 0.0 | 1.6 | 0.00 | 0.15 | 0.15 | 85 | 1018.1 |
| 20260505190304 | 13 | 275 | 1.6 | 4.8 | 0.00 | 0.15 | 0.15 | 84 | 1018.1 |
| 20260505180304 | 13 | 267 | 3.2 | 8.0 | 0.00 | 0.15 | 0.15 | 82 | 1018.2 |
| 20260505170804 | 14 | 253 | 3.2 | 4.8 | 0.00 | 0.15 | 0.15 | 81 | 1018.2 |
| 20260505170304 | 14 | 263 | 1.6 | 9.7 | 0.00 | 0.15 | 0.15 | 82 | 1018.2 |
| 20260505150302 | 14 | 247 | 1.6 | 9.7 | 0.00 | 0.15 | 0.15 | 78 | 1018.2 |
| 20260505140302 | 14 | 245 | 1.6 | 4.8 | 0.00 | 0.15 | 0.15 | 80 | 1018.3 |
| 20260505120802 | 13 | 234 | 0.0 | 4.8 | 0.00 | 0.13 | 0.13 | 85 | 1018.4 |
| 20260505120303 | 13 | 248 | 3.2 | 8.0 | 0.00 | 0.13 | 0.13 | 85 | 1018.4 |
| 20260505110803 | 13 | 240 | 4.8 | 4.8 | 0.03 | 0.13 | 0.13 | 85 | 1018.4 |
| 20260505110302 | 13 | 228 | 1.6 | 4.8 | 0.03 | 0.13 | 0.13 | 85 | 1018.4 |
| 20260505100303 | 13 | 225 | 1.6 | 11.3 | 0.05 | 0.10 | 0.10 | 83 | 1018.5 |
| 20260505090802 | 12 | 220 | 1.6 | 1.6 | 0.08 | 0.08 | 0.08 | 82 | 1018.5 |
| 20260505090303 | 12 | 235 | 0.0 | 9.7 | 0.08 | 0.08 | 0.08 | 83 | 1018.5 |
| 20260505080803 | 12 | 231 | 1.6 | 4.8 | 0.00 | 0.00 | 0.00 | 74 | 1018.4 |
| 20260505080303 | 12 | 273 | 3.2 | 12.9 | 0.00 | 0.00 | 0.00 | 73 | 1018.5 |
| 20260505070803 | 13 | 270 | 9.7 | 9.7 | 0.00 | 0.00 | 0.00 | 71 | 1018.5 |
| 20260505070303 | 13 | 249 | 3.2 | 4.8 | 0.00 | 0.00 | 0.00 | 71 | 1018.5 |
| 20260505060303 | 12 | 89 | 3.2 | 4.8 | 0.00 | 0.00 | 0.00 | 67 | 1018.5 |